User: anonymous   Login
Location: Kitt Peak
(31.9639°N, 111.5992°W)
Time: 04:13:33
(UTC-07:00)
Language:

NOAA 19 - Orbit

View from above orbital plane
View from above orbital plane
View from above satellite
View from above satellite

Ground track
Ground track

The orbit is defined by the following mean orbital elements,

1 33591U          26109.22590168 +.00000000 +00000-0 +37853-4 0 00005
2 33591  98.9545 180.0510 0013601 192.8472 167.2356 14.13464484    01
Epoch (UTC): 19 April 2026 05:25:17
Eccentricity: 0.0013601
inclination: 98.9545°
perigee height: 838 km
apogee height: 857 km
right ascension of ascending node: 180.0510°
argument of perigee: 192.8472°
revolutions per day: 14.13464484
mean anomaly at epoch: 167.2356°

The dashed part of the orbit path shows where the satellite is in the earth's shadow,  

DLR